Flag for Switzerland Weather past 2 weeks in Schaffhausen, Schaffhausen, Switzerland

Now
35 °F

Chilly.


Feels Like: 35 °F
Forecast: 29 / 62 °F
Wind: 2 mph from Northwest

Location: Zurich-Kloten


UV Index: 3 (Moderate)

Visibility: N/A


Pressure: 30.35 "Hg

Humidity: 67%

Dew point: 26 °F

Location of SchaffhausenLocation

Historic Weather in Schaffhausen

°F

Schaffhausen temperature yesterday

Maximum temperature yesterday: 52 °F (at 4:00 PM)
Minimum temperature yesterday: 40 °F (at 6:00 AM)
Average temperature yesterday: 46 °F

Past Weeks' High & Low Weather Summary

 TemperatureHumidityPressure
High70 °F (Apr 2, 3:00 PM)100% (Apr 6, 7:00 AM)30.36 "Hg (Apr 6, 7:00 AM)
Low32 °F (Apr 16, 5:00 AM)26% (Apr 2, 4:00 PM)29.63 "Hg (Apr 3, 2:00 PM)
Average53 °F66%30.02 "Hg
* Reported Apr 1 6:00 AM — Apr 16 6:00 AM, Schaffhausen, Weather by CustomWeather, © 2014

Note: Actual official high and low records may vary slightly from our data, if they occured in-between our weather recording intervals... More about our weather records

Advertising

Historic Weather Conditions — Data for Previous 24 hours

 ConditionsComfort  
Time TempWeatherWind HumidityBarometerVisibility
6:00 AM
Apr 16
35 °FChilly.2 mph67%30.35 "HgN/A
5:00 AM32 °FPassing clouds.1 mph76%30.35 "Hg22 mi
4:00 AM37 °FChilly.3 mph66%30.34 "HgN/A
3:00 AM40 °FChilly.5 mph60%30.33 "HgN/A
2:00 AM40 °FOvercast.5 mph59%30.33 "Hg25 mi
11:00 PM
Apr 15
43 °FPassing clouds.13 mph46%30.32 "Hg22 mi
10:00 PM45 °FCool.13 mph45%30.29 "HgN/A
9:00 PM46 °FCool.13 mph44%30.26 "HgN/A
8:00 PM49 °FPartly sunny.9 mph38%30.22 "Hg25 mi
7:00 PM50 °FCool.7 mph37%30.21 "HgN/A
6:00 PM51 °FCool.8 mph33%30.20 "HgN/A
5:00 PM51 °FScattered clouds.6 mph33%30.20 "Hg25 mi
4:00 PM52 °FCool.5 mph34%30.21 "HgN/A
3:00 PM51 °FCool.6 mph38%30.23 "HgN/A
2:00 PM49 °FScattered clouds.6 mph39%30.24 "Hg25 mi
1:00 PM48 °FCool.5 mph43%30.25 "HgN/A
12:00 PM45 °FQuite cool.2 mph45%30.26 "HgN/A
10:00 AM45 °FCool.9 mph52%30.26 "HgN/A
9:00 AM43 °FQuite cool.10 mph54%30.27 "HgN/A
8:00 AM41 °FPartly sunny.10 mph61%30.26 "Hg12 mi
Weather by CustomWeather, © 2014

See weather overview